Regional Weather Roundup
Issued by NWS Columbia, SC

Home | Current Version | Previous Version | Text Only | Print | Product List | Glossary On
Versions: 1 2 3 4 5 6 7 8 9 10 11 12 13 14 15 16 17 18 19 20 21 22 23 24 25 26 27 28 29 30 31 32 33 34 35 36 37 38 39 40 41 42 43 44 45 46 47 48 49 50
000
ASUS42 KCAE 311010
RWRCAE
REGIONAL WEATHER ROUNDUP
NATIONAL WEATHER SERVICE COLUMBIA SC
500 AM EST SAT JAN 31 2015

NOTE: "FAIR" INDICATES FEW OR NO CLOUDS BELOW 12,000 FEET WITH NO
SIGNIFICANT WEATHER AND/OR OBSTRUCTIONS TO VISIBILITY.

NOT ALL STATIONS ARE QUALITY CONTROLLED BY THE NATIONAL
WEATHER SERVICE. USE DATA WITH CAUTION...ESPECIALLY
DEWPOINT OBSERVATIONS.

SCZ001>056-GAZ040-063>065-077-311100-
...UPSTATE SOUTH CAROLINA...

CITY           SKY/WX    TMP DP  RH WIND       PRES   REMARKS
ANDERSON       CLEAR     23  18  81 CALM      30.32S
LIBERTY        SUNNY     20  19  98 CALM      30.30S
SPARTANBURG    CLEAR     28  19  69 CALM      30.31S
CLEMSON        CLEAR     29  23  78 CALM      30.31F
GREENVILLE     CLEAR     32  12  43 N6        30.31S WCI  26
GREENWOOD      CLEAR     25  17  72 CALM      30.34S
GREER          CLEAR     32  10  40 CALM      30.29S
ROCK HILL      CLEAR     24  15  68 CALM      30.33R
CHESTER        SUNNY     30  18  59 CALM      30.33S
LAURENS        SUNNY     28  21  74 NE5       30.32S WCI  23


...CENTRAL SOUTH CAROLINA...

CITY           SKY/WX    TMP DP  RH WIND       PRES   REMARKS
COLUMBIA APT   CLEAR     25  19  78 CALM      30.34S
COLUMBIA OWENS CLEAR     28  19  69 CALM      30.35S
DARLINGTON     CLEAR     25  14  63 CALM      30.35R
FLORENCE       CLEAR     29  12  49 N5        30.33S WCI  24
MCENTIRE ANGB  CLEAR     26  15  65 W2        30.34S
ORANGEBURG     CLEAR     28  23  81 CALM      30.34S
SUMTER SHAW    CLEAR     25  14  64 NE8       30.31F WCI  16
NEWBERRY       SUNNY     27  19  74 CALM      30.36S
AIKEN          FAIR      30  21  69 CALM      30.36S
BARNWELL       FAIR      28  23  80 N5        30.35S WCI  23
MANNING        FAIR      30  19  64 CALM      30.34S
CAMDEN         FAIR      23  16  74 CALM      30.34F
LANCASTER      SUNNY     27  14  59 CALM      30.33S
WINNSBORO      SUNNY     27  19  74 CALM      30.32S


...EASTERN AND COASTAL SOUTH CAROLINA...

CITY           SKY/WX    TMP DP  RH WIND       PRES   REMARKS
MYRTLE BEACH   CLEAR     30  10  43 NW5       30.35S WCI  25
N MYRTLE BCH   CLEAR     30  12  47 N6        30.33R WCI  24
MARION         FAIR      28  16  59 CALM      30.34S
HARTSVILLE     FAIR      30  18  59 CALM      30.33S
FLORENCE       CLEAR     29  12  49 N5        30.33S WCI  24
DARLINGTON     CLEAR     25  14  63 CALM      30.35R
CHARLESTON APT CLEAR     32  17  54 N7        30.34R WCI  26
MOUNT PLEASANT FAIR      34  19  55 N3        30.33S
WALTERBORO     SUNNY     28 N/A N/A CALM      30.35R
BEAUFORT       CLEAR     34  25  69 N6        30.34R WCI  29


...EASTERN GEORGIA...

CITY           SKY/WX    TMP DP  RH WIND       PRES   REMARKS
AUGUSTA BUSH F CLEAR     24  19  81 CALM      30.36R
AUGUSTA DANIEL CLEAR     34  17  50 N5        30.35R WCI  30
THOMSON        CLEAR     26  26  98 CALM      30.39R
WASHINGTON     FAIR      32  27  80 NW3       30.33S
CLAXTON        FAIR      30  30 100 CALM      30.34R
SYLVANIA       SUNNY     32  27  83 CALM      30.35S
STATESBORO     CLEAR     28  28 100 N3        30.34S
SAVANNAH       CLEAR     32  26  78 N3        30.34S


...SOUTHERN NORTH CAROLINA...

CITY           SKY/WX    TMP DP  RH WIND       PRES   REMARKS
CHARLOTTE      CLEAR     24  12  60 SW3       30.32R
MONROE         CLEAR     21  14  74 SW5       30.31R WCI  15
WADESBORO      SUNNY     22  16  78 CALM      30.33S
ROCKINGHAM       N/A     28   9  46 N5        30.32S WCI  22
RUTHERFORDTON  CLEAR     26  11  52 N3        30.30S
ASHEVILLE      CLEAR     26  10  50 N9        30.29S WCI  17

$$


USA.gov is the U.S. government's official web portal to all federal, state and local government web resources and services.